Hamilton Island Observation History
Time Wind Speed Temp Pressure Rel. Hum Rain
04/04:00am SSE 22-27 kts 18.2°c 1020.0 hPa 58% 0.0mm
04/03:30am SSE 23-27 kts 18.4°c 1019.9 hPa 56% 0.0mm
04/03:00am SSE 23-28 kts 19.0°c 1019.9 hPa 58% 0.0mm
04/02:30am SSE 24-29 kts 19.1°c 1019.9 hPa 54% 0.0mm
04/02:00am SSE 22-28 kts 19.2°c 1020.3 hPa 49% 0.0mm
04/01:30am SSE 20-25 kts 19.2°c 1020.5 hPa 49% 0.0mm
04/01:00am SE 20-25 kts 19.1°c 1021.0 hPa 52% 0.0mm
04/12:30am SE 22-28 kts 19.4°c 1021.2 hPa 47% 0.0mm
04/12:00am SSE 23-27 kts 19.6°c 1021.3 hPa 52% 0.0mm
Time Wind Speed Temp Pressure Rel. Hum Rain
03/11:30pm SE 20-24 kts 19.7°c 1021.3 hPa 49% 0.0mm
03/11:00pm SSE 18-23 kts 19.5°c 1021.4 hPa 47% 0.0mm
03/10:30pm SSE 17-21 kts 19.5°c 1021.5 hPa 46% 0.0mm
03/10:00pm SE 18-21 kts 19.5°c 1021.5 hPa 54% 0.0mm
03/09:30pm SE 17-21 kts 19.4°c 1021.5 hPa 56% 0.0mm
03/09:00pm SE 15-19 kts 19.1°c 1021.5 hPa 60% 0.0mm
03/08:30pm SE 14-17 kts 18.8°c 1021.3 hPa 64% 0.0mm
03/08:00pm SE 13-17 kts 19.1°c 1021.3 hPa 60% 0.0mm
03/07:30pm SE 13-16 kts 19.1°c 1021.1 hPa 59% 0.0mm
03/07:00pm SE 12-14 kts 18.8°c 1020.7 hPa 65% 0.0mm
03/06:30pm SE 12-14 kts 18.6°c 1020.3 hPa 66% 0.0mm
03/06:00pm ESE 13-15 kts 18.7°c 1020.2 hPa 69% 0.0mm
03/05:30pm SE 15-18 kts 18.6°c 1019.9 hPa 70% 0.0mm
03/05:00pm SE 15-18 kts 18.8°c 1019.8 hPa 69% 0.0mm
03/04:30pm SE 18-21 kts 19.0°c 1019.6 hPa 69% 0.0mm
03/04:00pm SE 15-19 kts 19.1°c 1019.6 hPa 69% 0.0mm
03/03:30pm SSE 18-23 kts 19.0°c 1019.5 hPa 64% 0.0mm
03/03:00pm SSE 19-24 kts 19.4°c 1019.5 hPa 68% 0.0mm
03/02:30pm SSE 20-24 kts 19.1°c 1019.9 hPa 64% 0.0mm
03/02:00pm SSE 19-25 kts 19.2°c 1019.9 hPa 64% 0.0mm
03/01:30pm SSE 20-26 kts 19.3°c 1020.0 hPa 62% 0.0mm
03/01:00pm SSE 21-25 kts 19.3°c 1020.2 hPa 63% 0.0mm
03/12:30pm SSE 21-26 kts 19.0°c 1020.6 hPa 60% 0.0mm
03/12:00pm SSE 22-27 kts 19.3°c 1021.0 hPa 65% 0.0mm
03/11:30am SSE 23-26 kts 19.1°c 1021.5 hPa 63% 0.0mm
03/11:00am SSE 23-28 kts 19.0°c 1021.7 hPa 61% 0.0mm
03/10:30am SSE 25-29 kts 19.0°c 1021.8 hPa 62% 0.0mm
03/10:00am SE 24-29 kts 18.9°c 1021.9 hPa 59% 0.0mm
03/09:30am SSE 25-30 kts 18.8°c 1022.1 hPa 60% 0.0mm
03/09:00am SSE 25-30 kts 18.7°c 1022.0 hPa 58% 0.2mm
03/08:30am SE 24-29 kts 18.9°c 1021.8 hPa 60% 0.2mm
03/08:00am SSE 24-30 kts 18.7°c 1021.4 hPa 59% 0.2mm
03/07:30am SSE 26-31 kts 18.8°c 1021.1 hPa 60% 0.2mm
03/07:00am SE 25-30 kts 18.8°c 1020.8 hPa 60% 0.2mm
03/06:30am SSE 25-29 kts 18.4°c 1020.4 hPa 57% 0.2mm
03/06:00am SSE 22-27 kts 18.7°c 1020.0 hPa 64% 0.2mm
03/05:30am SSE 23-27 kts 18.8°c 1019.7 hPa 58% 0.2mm
03/05:00am SSE 23-28 kts 19.0°c 1019.4 hPa 57% 0.2mm
03/04:30am SSE 22-27 kts 19.5°c 1019.3 hPa 54% 0.2mm
03/04:00am SSE 20-25 kts 19.8°c 1019.1 hPa 58% 0.2mm
03/03:30am SSE 21-26 kts 19.9°c 1019.2 hPa 62% 0.2mm
03/03:00am SSE 21-25 kts 20.0°c 1019.2 hPa 64% 0.2mm
03/02:30am SSE 21-25 kts 20.4°c 1019.3 hPa 67% 0.2mm
03/02:00am SSE 20-24 kts 20.5°c 1019.4 hPa 68% 0.2mm
03/01:30am SSE 19-23 kts 20.6°c 1019.8 hPa 71% 0.2mm
03/01:00am SSE 17-21 kts 20.7°c 1020.1 hPa 74% 0.2mm
03/12:30am SE 19-23 kts 21.5°c 1020.0 hPa 69% 0.2mm
03/12:00am SSE 17-20 kts 21.3°c 1020.1 hPa 79% 0.2mm
Time Wind Speed Temp Pressure Rel. Hum Rain
02/11:30pm SSE 16-20 kts 21.5°c 1020.4 hPa 74% 0.2mm
02/11:00pm SE 19-23 kts 22.0°c 1020.5 hPa 66% 0.2mm
02/10:30pm SE 16-19 kts 21.9°c 1020.5 hPa 65% 0.2mm
02/10:00pm SE 15-17 kts 22.0°c 1020.4 hPa 71% 0.2mm
02/09:30pm SE 12-15 kts 21.7°c 1020.4 hPa 72% 0.2mm
02/09:00pm SE 14-16 kts 21.6°c 1020.2 hPa 76% 0.2mm
02/08:30pm SE 17-19 kts 21.8°c 1020.1 hPa 74% 0.2mm
02/08:00pm SE 13-16 kts 21.5°c 1019.8 hPa 77% 0.2mm
02/07:30pm SE 10-13 kts 21.4°c 1019.5 hPa 80% 0.2mm
02/07:00pm SE 10-11 kts 21.2°c 1019.3 hPa 78% 0.2mm
02/06:30pm SE 10-12 kts 21.2°c 1018.9 hPa 79% 0.2mm
02/06:00pm SE 11-13 kts 21.5°c 1018.6 hPa 78% 0.2mm
02/05:30pm ESE 8-10 kts 21.5°c 1018.3 hPa 76% 0.2mm
02/05:00pm ESE 13-14 kts 21.7°c 1018.0 hPa 76% 0.2mm
02/04:30pm SE 13-14 kts 21.9°c 1017.7 hPa 71% 0.2mm
02/04:00pm SE 10-11 kts 22.4°c 1017.7 hPa 74% 0.2mm
02/03:30pm SE 11-13 kts 22.7°c 1017.4 hPa 75% 0.2mm
02/03:00pm SE 11-13 kts 22.8°c 1017.4 hPa 69% 0.2mm
02/02:30pm SE 12-14 kts 23.0°c 1017.4 hPa 70% 0.2mm
02/02:00pm SE 13-15 kts 23.2°c 1017.5 hPa 73% 0.2mm
02/01:30pm SSE 13-15 kts 23.2°c 1017.8 hPa 74% 0.2mm
02/01:00pm SSE 12-15 kts 23.3°c 1018.1 hPa 73% 0.2mm
02/12:30pm SE 11-13 kts 23.6°c 1018.5 hPa 76% 0.2mm
02/12:00pm SE 7-8 kts 23.5°c 1018.7 hPa 75% 0.2mm
02/11:30am SE 7-9 kts 23.9°c 1019.0 hPa 76% 0.2mm
02/11:00am S 5-8 kts 24.5°c 1019.2 hPa 66% 0.2mm
02/10:30am SSW 5-7 kts 24.1°c 1019.5 hPa 63% 0.2mm
02/10:00am S 4-6 kts 23.7°c 1019.5 hPa 62% 0.2mm
02/09:30am WSW 5-7 kts 23.0°c 1019.5 hPa 73% 0.0mm
02/09:00am CALM 0 kts 22.8°c 1019.3 hPa 77% 0.2mm
02/08:30am SW 3-4 kts 21.5°c 1019.2 hPa 81% 0.2mm
02/08:00am SW 4-6 kts 21.0°c 1019.1 hPa 88% 0.2mm
02/07:30am WSW 3-4 kts 20.5°c 1018.8 hPa 91% 0.2mm
02/07:00am NW 4 kts 20.1°c 1018.2 hPa 96% 0.2mm
02/06:30am NW 4-5 kts 19.8°c 1017.8 hPa 95% 0.2mm
02/06:00am NW 4-5 kts 19.8°c 1017.2 hPa 95% 0.2mm
02/05:30am NW 4 kts 19.8°c 1017.1 hPa 94% 0.2mm
02/05:00am NW 5-6 kts 19.7°c 1016.8 hPa 93% 0.2mm
02/04:30am NNW 4-5 kts 19.6°c 1016.7 hPa 95% 0.2mm
02/04:00am WNW 4-5 kts 19.8°c 1016.4 hPa 94% 0.2mm
02/03:30am CALM 0 kts 19.8°c 1016.5 hPa 94% 0.2mm
02/03:00am CALM 0 kts 19.9°c 1016.7 hPa 94% 0.2mm
02/02:30am NW 3-5 kts 20.1°c 1016.9 hPa 93% 0.2mm
02/02:00am WNW 4-5 kts 20.1°c 1017.2 hPa 93% 0.2mm
02/01:30am NW 4-5 kts 20.1°c 1017.4 hPa 94% 0.2mm
02/01:00am NW 5 kts 20.1°c 1017.3 hPa 93% 0.2mm
02/12:30am NW 3-4 kts 20.4°c 1017.5 hPa 94% 0.2mm
02/12:00am NW 4-5 kts 20.5°c 1017.8 hPa 93% 0.2mm